• In Hungary
  • List of Countries
  • For 7 days
  • Water Temperature
  • Satellite Maps
  • Weather Map
  • News
  • Weather Widgets
  • user-avatar
    Login

    Hourly Weather Perevolochna

    Today, 16 October, Tuesday

    Time Temperature Precipitation Wind Pressure Humidity
    00:00 +14°C° 0 mm 1 mps 760 mmHg 71%
    01:00 +13°C° 0 mm 1 mps 760 mmHg 73%
    02:00 +13°C° 0 mm 1 mps 760 mmHg 75%
    03:00 +13°C° 0 mm 1 mps 760 mmHg 77%
    04:00 +13°C° 0 mm 1 mps 760 mmHg 78%
    05:00 +12°C° 0 mm 1 mps 760 mmHg 80%
    06:00 +13°C° 0 mm 1 mps 760 mmHg 77%
    07:00 +14°C° 0 mm 1 mps 760 mmHg 75%
    08:00 +15°C° 0 mm 1 mps 760 mmHg 73%
    09:00 +16°C° 0 mm 2 mps 760 mmHg 66%
    10:00 +18°C° 0 mm 2 mps 760 mmHg 60%
    11:00 +20°C° 0 mm 2 mps 760 mmHg 54%
    12:00 +21°C° 0 mm 2 mps 760 mmHg 51%
    13:00 +23°C° 0 mm 1 mps 760 mmHg 49%
    14:00 +24°C° 0 mm 1 mps 759 mmHg 46%
    15:00 +22°C° 0 mm 1 mps 759 mmHg 51%
    16:00 +21°C° 0 mm 1 mps 759 mmHg 56%
    17:00 +19°C° 0 mm 1 mps 759 mmHg 61%
    18:00 +19°C° 0 mm 1 mps 759 mmHg 63%
    19:00 +18°C° 0 mm 1 mps 759 mmHg 66%
    20:00 +18°C° 0 mm 1 mps 759 mmHg 68%
    21:00 +16°C° 0 mm 1 mps 759 mmHg 69%
    22:00 +16°C° 0 mm 1 mps 759 mmHg 71%
    23:00 +15°C° 0 mm 1 mps 759 mmHg 73%

    Tomorrow, 17 October, Wednesday

    Time Temperature Precipitation Wind Pressure Humidity
    00:00 +15°C° 0 mm 1 mps 759 mmHg 74%
    01:00 +15°C° 0 mm 1 mps 759 mmHg 76%
    02:00 +15°C° 0 mm 1 mps 759 mmHg 77%
    03:00 +14°C° 0 mm 1 mps 759 mmHg 78%
    04:00 +14°C° 0 mm 1 mps 759 mmHg 80%
    05:00 +14°C° 0 mm 1 mps 758 mmHg 81%
    06:00 +15°C° 0 mm 1 mps 759 mmHg 78%
    07:00 +15°C° 0 mm 1 mps 759 mmHg 75%
    08:00 +16°C° 0 mm 1 mps 759 mmHg 72%
    09:00 +19°C° 0 mm 1 mps 759 mmHg 65%
    10:00 +20°C° 0 mm 1 mps 759 mmHg 59%
    11:00 +22°C° 0 mm 1 mps 759 mmHg 53%
    12:00 +23°C° 0 mm 1 mps 759 mmHg 51%
    13:00 +24°C° 0 mm 1 mps 759 mmHg 49%
    14:00 +24°C° 0 mm 1 mps 758 mmHg 46%
    15:00 +23°C° 0 mm 1 mps 758 mmHg 51%
    16:00 +21°C° 0 mm 1 mps 758 mmHg 56%
    17:00 +20°C° 0 mm 1 mps 758 mmHg 61%
    18:00 +19°C° 0 mm 1 mps 758 mmHg 63%
    19:00 +18°C° 0 mm 2 mps 758 mmHg 66%
    20:00 +17°C° 0 mm 2 mps 758 mmHg 68%
    21:00 +16°C° 0 mm 2 mps 758 mmHg 70%
    22:00 +16°C° 0 mm 2 mps 758 mmHg 72%
    23:00 +16°C° 0 mm 2 mps 758 mmHg 73%

    Day after tomorrow, 18 October, Thursday

    Time Temperature Precipitation Wind Pressure Humidity
    00:00 +15°C° 0 mm 2 mps 758 mmHg 75%
    01:00 +15°C° 0 mm 2 mps 758 mmHg 76%
    02:00 +14°C° 0 mm 2 mps 758 mmHg 78%
    03:00 +14°C° 0 mm 2 mps 758 mmHg 79%
    04:00 +14°C° 0 mm 2 mps 758 mmHg 80%
    05:00 +13°C° 0 mm 2 mps 757 mmHg 81%
    06:00 +14°C° 0 mm 2 mps 757 mmHg 79%
    07:00 +15°C° 0 mm 2 mps 757 mmHg 76%
    08:00 +15°C° 0 mm 2 mps 757 mmHg 73%
    09:00 +17°C° 0 mm 2 mps 757 mmHg 66%
    10:00 +19°C° 0 mm 2 mps 757 mmHg 59%
    11:00 +21°C° 0 mm 2 mps 757 mmHg 51%
    12:00 +21°C° 0 mm 2 mps 757 mmHg 49%
    13:00 +23°C° 0 mm 2 mps 756 mmHg 46%
    14:00 +24°C° 0 mm 2 mps 756 mmHg 44%
    15:00 +21°C° 0 mm 2 mps 756 mmHg 48%
    16:00 +20°C° 0 mm 2 mps 755 mmHg 53%
    17:00 +18°C° 0 mm 2 mps 755 mmHg 57%
    18:00 +18°C° 0 mm 2 mps 755 mmHg 60%
    19:00 +17°C° 0 mm 2 mps 755 mmHg 62%
    20:00 +16°C° 0 mm 2 mps 755 mmHg 64%
    21:00 +16°C° 0 mm 2 mps 755 mmHg 65%
    22:00 +15°C° 0 mm 2 mps 755 mmHg 66%
    23:00 +15°C° 0 mm 2 mps 755 mmHg 67%

    19 October, Friday

    Time Temperature Precipitation Wind Pressure Humidity
    00:00 +15°C° 0 mm 2 mps 755 mmHg 67%
    01:00 +14°C° 0 mm 2 mps 755 mmHg 67%
    02:00 +14°C° 0 mm 2 mps 755 mmHg 68%
    03:00 +13°C° 0 mm 2 mps 754 mmHg 68%
    04:00 +13°C° 0 mm 2 mps 754 mmHg 69%
    05:00 +13°C° 0 mm 1 mps 754 mmHg 70%
    06:00 +13°C° 0 mm 1 mps 754 mmHg 68%
    07:00 +14°C° 0 mm 1 mps 754 mmHg 66%
    08:00 +14°C° 0 mm 1 mps 754 mmHg 64%
    09:00 +16°C° 0 mm 1 mps 754 mmHg 58%
    10:00 +18°C° 0 mm 2 mps 753 mmHg 52%
    11:00 +19°C° 0 mm 2 mps 753 mmHg 47%
    12:00 +20°C° 0 mm 2 mps 753 mmHg 45%
    13:00 +22°C° 0 mm 1 mps 753 mmHg 43%
    14:00 +22°C° 0 mm 1 mps 752 mmHg 41%
    15:00 +21°C° 0 mm 1 mps 752 mmHg 45%
    16:00 +19°C° 0 mm 1 mps 752 mmHg 49%
    17:00 +16°C° 0 mm 0 mps 752 mmHg 53%
    18:00 +16°C° 0 mm 0 mps 752 mmHg 54%
    19:00 +15°C° 0 mm 0 mps 752 mmHg 55%
    20:00 +15°C° 0 mm 0 mps 752 mmHg 57%
    21:00 +15°C° 0 mm 1 mps 752 mmHg 58%
    22:00 +15°C° 0 mm 1 mps 751 mmHg 59%
    23:00 +15°C° 0 mm 1 mps 751 mmHg 61%

    20 October, Saturday

    Time Temperature Precipitation Wind Pressure Humidity
    00:00 +14°C° 0 mm 1 mps 751 mmHg 62%
    01:00 +14°C° 0 mm 1 mps 751 mmHg 63%
    02:00 +14°C° 0 mm 1 mps 751 mmHg 65%
    03:00 +13°C° 0 mm 1 mps 751 mmHg 66%
    04:00 +13°C° 0 mm 1 mps 751 mmHg 67%
    05:00 +13°C° 0 mm 1 mps 750 mmHg 68%
    06:00 +13°C° 0 mm 2 mps 751 mmHg 68%
    07:00 +13°C° 0 mm 2 mps 751 mmHg 68%
    08:00 +14°C° 0 mm 2 mps 751 mmHg 67%
    09:00 +15°C° 0 mm 2 mps 751 mmHg 62%
    10:00 +16°C° 0 mm 2 mps 751 mmHg 58%
    11:00 +18°C° 0 mm 2 mps 751 mmHg 53%
    12:00 +18°C° 0 mm 2 mps 751 mmHg 52%
    13:00 +19°C° 0 mm 2 mps 750 mmHg 50%
    14:00 +19°C° 0 mm 2 mps 750 mmHg 49%
    15:00 +18°C° 0 mm 2 mps 750 mmHg 54%
    16:00 +17°C° 0 mm 2 mps 750 mmHg 58%
    17:00 +16°C° 0 mm 2 mps 750 mmHg 63%
    18:00 +15°C° 0 mm 2 mps 750 mmHg 65%
    19:00 +15°C° 0 mm 2 mps 750 mmHg 67%
    20:00 +14°C° 0 mm 2 mps 750 mmHg 70%
    21:00 +14°C° 0 mm 2 mps 750 mmHg 72%
    22:00 +13°C° 0 mm 2 mps 750 mmHg 75%
    23:00 +13°C° 0 mm 2 mps 750 mmHg 77%

    21 October, Sunday

    Time Temperature Precipitation Wind Pressure Humidity
    00:00 +13°C° 0 mm 2 mps 750 mmHg 80%
    01:00 +12°C° 0 mm 2 mps 750 mmHg 82%
    02:00 +12°C° 0 mm 2 mps 750 mmHg 85%
    03:00 +12°C° 0 mm 2 mps 749 mmHg 87%
    04:00 +10°C° 0 mm 2 mps 749 mmHg 88%
    05:00 +10°C° 0 mm 2 mps 749 mmHg 90%
    06:00 +12°C° 0 mm 2 mps 749 mmHg 89%
    07:00 +12°C° 0 mm 2 mps 749 mmHg 88%
    08:00 +12°C° 0 mm 2 mps 750 mmHg 87%
    09:00 +13°C° 0 mm 2 mps 750 mmHg 81%
    10:00 +15°C° 0 mm 2 mps 750 mmHg 75%
    11:00 +16°C° 0 mm 2 mps 750 mmHg 69%
    12:00 +16°C° 0.1 mm 3 mps 750 mmHg 68%
    13:00 +16°C° 0.1 mm 3 mps 750 mmHg 67%
    14:00 +17°C° 0.1 mm 3 mps 749 mmHg 66%
    15:00 +16°C° 0.1 mm 3 mps 750 mmHg 70%
    16:00 +14°C° 0.1 mm 3 mps 750 mmHg 74%
    17:00 +13°C° 0.1 mm 4 mps 750 mmHg 77%
    18:00 +12°C° 0 mm 3 mps 750 mmHg 80%
    19:00 +11°C° 0 mm 3 mps 750 mmHg 83%
    20:00 +11°C° 0 mm 3 mps 751 mmHg 86%
    21:00 +10°C° 0 mm 3 mps 751 mmHg 87%
    22:00 +9°C° 0 mm 3 mps 751 mmHg 89%
    23:00 +9°C° 0 mm 3 mps 751 mmHg 91%
    Show more